Regional Weather Roundup
Issued by NWS

Home | Current Version | Previous Version | Graphics & Text | Print | Product List | Glossary On
Versions: 1 2 3 4 5 6 7 8 9 10 11 12 13 14 15 16 17 18 19 20 21 22 23 24 25 26 27 28 29 30 31 32 33 34 35 36 37 38 39 40 41 42 43 44 45 46 47 48 49 50
000
ASUS43 KOAX 291710
RWRNE

WEATHER ROUNDUP FOR NEBRASKA
NATIONAL WEATHER SERVICE OMAHA NE
1200 PM CDT MON MAY 29 2017

NOTES: SATELLITE DATA IS BEING USED TO AUGMENT CLOUD COVER ABOVE
       12000 FEET.
       "FAIR" INDICATES FEW OR NO CLOUDS BELOW 12,000 FEET WITH NO
       SIGNIFICANT WEATHER AND/OR OBSTRUCTIONS TO VISIBILITY.

  * THESE STATIONS DO NOT REPORT WEATHER SUCH AS RAIN...SNOW OR FOG.

NEZ001>004-019>022-054>056-291800-
NEBRASKA PANHANDLE

CITY           SKY/WX    TMP DP  RH WIND       PRES   REMARKS
SCOTTSBLUFF    PTSUNNY   69  37  30 N16G31    30.20S
ALLIANCE       SUNNY     66  39  37 NW16      30.18S
CHADRON        SUNNY     64  38  38 NW22G31   30.16F
GORDON         FAIR      62  38  41 NW8       30.17S
KIMBALL        MOSUNNY   65  39  38 N10       30.25S
SIDNEY         SUNNY     66  41  40 N14       30.22S
$$

NEZ057>060-069>072-079>082-291800-
SOUTHWEST NEBRASKA

CITY           SKY/WX    TMP DP  RH WIND       PRES   REMARKS
NORTH PLATTE   SUNNY     69  44  40 NW9G18    30.15R
IMPERIAL       SUNNY     71  42  35 NW8       30.17F
LEXINGTON      SUNNY     71  42  34 NW12G17   30.12S
MCCOOK         SUNNY     74  42  31 N16G25    30.13S
OGALLALA       SUNNY     70  44  39 N15G21    30.18R
$$

NEZ005>010-023>029-035>040-094-291800-
NORTH CENTRAL NEBRASKA

CITY           SKY/WX    TMP DP  RH WIND       PRES   REMARKS
VALENTINE      MOSUNNY   65  38  36 NW17G29   30.13S
AINSWORTH      MOSUNNY   62  41  45 NW18G25   30.14S
BROKEN BOW     SUNNY     68  40  35 N13G20    30.12R
O`NEILL        MOSUNNY   65  37  36 NW16G28   30.10R
ORD            SUNNY     67  39  35 NW16G29   30.09R
THEDFORD       SUNNY     65  39  38 NW10      30.16R
$$

NEZ041-046>049-061>064-073>077-083>087-291800-
SOUTH CENTRAL NEBRASKA

CITY           SKY/WX    TMP DP  RH WIND       PRES   REMARKS
GRAND ISLAND   SUNNY     70  46  42 NW15G22   30.08F
AURORA         SUNNY     71  42  35 NW14G21   30.07S
HASTINGS       SUNNY     71  45  39 NW16      30.09S
HEBRON         SUNNY     74  43  32 N8        30.06S
HOLDREGE       SUNNY     70  43  37 NW8       30.11S
KEARNEY *      SUNNY     70  43  37 N14       30.11S
YORK           SUNNY     72  43  35 NW14G21   30.06S
$$

NEZ011>018-030>034-042>045-291800-
NORTHEAST NEBRASKA

CITY           SKY/WX    TMP DP  RH WIND       PRES   REMARKS
NORFOLK        SUNNY     67  40  37 NW17G30   30.04S
ALBION         SUNNY     67  41  37 NW20G25   30.08R
BLAIR          MOSUNNY   71  41  33 NW13G29   30.01R
FREMONT        SUNNY     72  41  32 NW17      30.03R
TEKAMAH        SUNNY     73  39  29 NW25G33   30.00S
WAYNE          MOSUNNY   67  41  39 NW20G28   30.03R
$$

NEZ050>053-065>068-078-088>093-291800-
SOUTHEAST NEBRASKA

CITY           SKY/WX    TMP DP  RH WIND       PRES   REMARKS
LINCOLN        SUNNY     74  45  35 NW14G20   30.05R
OMAHA EPPLEY   MOSUNNY   74  43  32 NW17G24   30.00R
BEATRICE       SUNNY     75  47  37 N13       30.04S
NEBRASKA CITY  SUNNY     75  33  21 NW15G22   30.02R
PLATTSMOUTH    SUNNY     73  43  33 NW13      30.02R
$$

NEZ044-045-051>053-067-291800-
OMAHA AREA

CITY           SKY/WX    TMP DP  RH WIND       PRES   REMARKS
OMAHA EPPLEY   MOSUNNY   74  43  32 NW17G24   30.00R
BLAIR          MOSUNNY   71  41  33 NW13G29   30.01R
FREMONT        SUNNY     72  41  32 NW17      30.03R
MILLARD        MOSUNNY   73  48  41 NW10G20   30.01S
OFFUTT AFB     MOSUNNY   72  46  40 W13G18    30.01R
PLATTSMOUTH    SUNNY     73  43  33 NW13      30.02R
WAHOO          FAIR      74  36  25 NW21G26   30.02R
$$




USA.gov is the U.S. government's official web portal to all federal, state and local government web resources and services.